Location: Godiavel Galaoual
(15.2485°N, 12.6604°W)
Time: 01:27:48
(UTC+00:00)

ISS - Pass Details

Date: 16 May 2021
Orbit: 417 x 422 km, 51.6° (Epoch: 22 June)

Event Time Altitude Azimuth Distance (km) Brightness Sun altitude
Rises 05:45:43 0° 321° (NW) 2,360 -0.1 -8.9°
Reaches altitude 10° 05:47:49 10° 320° (NW) 1,496 -1.1 -8.4°
Maximum altitude 05:51:10 80° 234° (SW) 429 -3.8 -7.7°
Drops below altitude 10° 05:54:31 10° 146° (SE) 1,494 -0.8 -6.9°
Sets 05:56:37 0° 145° (SE) 2,357 0.2 -6.5°
